owner,sensor,date,latitude,longitude,vertical_datum,wind_speed,wind_to_direction,wind_speed_of_gust,qcFlag 
COMPS,ioos:station:USF.COMPS:NFB:1,2015-02-01T00:00:00Z,25.0840,-81.0960,6.0,6.0,72.12,7.15,'1111122,1111122,1111122' 
COMPS,ioos:station:USF.COMPS:NFB:1,2015-02-01T00:06:00Z,25.0840,-81.0960,6.0,6.19,71.67,7.15,'1111122,1111122,1111122' 
COMPS,ioos:station:USF.COMPS:NFB:1,2015-02-01T00:12:00Z,25.0840,-81.0960,6.0,5.85,74.17,6.56,'1111122,1111122,1111122' 
COMPS,ioos:station:USF.COMPS:NFB:1,2015-02-01T00:18:00Z,25.0840,-81.0960,6.0,5.89,73.96,6.56,'1111122,1111122,1111122' 
COMPS,ioos:station:USF.COMPS:NFB:1,2015-02-01T00:24:00Z,25.0840,-81.0960,6.0,5.85,72.79,6.66,'1111122,1111122,1111122' 
COMPS,ioos:station:USF.COMPS:NFB:1,2015-02-01T00:30:00Z,25.0840,-81.0960,6.0,5.9,72.37,7.05,'1111122,1111122,1111122' 
COMPS,ioos:station:USF.COMPS:NFB:1,2015-02-01T00:36:00Z,25.0840,-81.0960,6.0,6.05,73.64,6.95,'1111122,1111122,1111122' 
COMPS,ioos:station:USF.COMPS:NFB:1,2015-02-01T00:42:00Z,25.0840,-81.0960,6.0,5.71,72.87,6.56,'1111122,1111122,1111122' 
COMPS,ioos:station:USF.COMPS:NFB:1,2015-02-01T00:48:00Z,25.0840,-81.0960,6.0,5.26,71.1,5.87,'1111122,1111122,1111122' 
COMPS,ioos:station:USF.COMPS:NFB:1,2015-02-01T00:54:00Z,25.0840,-81.0960,6.0,5.02,71.34,5.68,'1111122,1111122,1111122' 
COMPS,ioos:station:USF.COMPS:NFB:1,2015-02-01T01:00:00Z,25.0840,-81.0960,6.0,4.68,72.11,5.48,'1111122,1111122,1111122' 
COMPS,ioos:station:USF.COMPS:NFB:1,2015-02-01T01:06:00Z,25.0840,-81.0960,6.0,4.36,69.98,5.29,'1111122,1111122,1111122' 
COMPS,ioos:station:USF.COMPS:NFB:1,2015-02-01T01:12:00Z,25.0840,-81.0960,6.0,4.77,70.65,5.78,'1111122,1111122,1111122' 
COMPS,ioos:station:USF.COMPS:NFB:1,2015-02-01T01:18:00Z,25.0840,-81.0960,6.0,4.97,66.62,5.68,'1111122,1111122,1111122' 
COMPS,ioos:station:USF.COMPS:NFB:1,2015-02-01T01:24:00Z,25.0840,-81.0960,6.0,5.06,65.93,6.07,'1111122,1111122,1111122' 
COMPS,ioos:station:USF.COMPS:NFB:1,2015-02-01T01:30:00Z,25.0840,-81.0960,6.0,5.15,64.51,5.87,'1111122,1111122,1111122' 
COMPS,ioos:station:USF.COMPS:NFB:1,2015-02-01T01:36:00Z,25.0840,-81.0960,6.0,5.25,63.49,6.17,'1111122,1111122,1111122' 
COMPS,ioos:station:USF.COMPS:NFB:1,2015-02-01T01:42:00Z,25.0840,-81.0960,6.0,5.54,61.1,6.56,'1111122,1111122,1111122' 
COMPS,ioos:station:USF.COMPS:NFB:1,2015-02-01T01:48:00Z,25.0840,-81.0960,6.0,5.9,60.8,7.15,'1111122,1111122,1111122' 
COMPS,ioos:station:USF.COMPS:NFB:1,2015-02-01T01:54:00Z,25.0840,-81.0960,6.0,5.92,62.65,6.46,'1111122,1111122,1111122' 
COMPS,ioos:station:USF.COMPS:NFB:1,2015-02-01T03:00:00Z,25.0840,-81.0960,6.0,5.74,62.18,6.76,'1111122,1111122,1111122' 
COMPS,ioos:station:USF.COMPS:NFB:1,2015-02-01T03:06:00Z,25.0840,-81.0960,6.0,6.1,64.1,6.95,'1111122,1111122,1111122' 
COMPS,ioos:station:USF.COMPS:NFB:1,2015-02-01T03:12:00Z,25.0840,-81.0960,6.0,6.06,63.11,7.35,'1111122,1111122,1111122' 
COMPS,ioos:station:USF.COMPS:NFB:1,2015-02-01T03:18:00Z,25.0840,-81.0960,6.0,6.13,63.2,7.15,'1111122,1111122,1111122' 
COMPS,ioos:station:USF.COMPS:NFB:1,2015-02-01T03:24:00Z,25.0840,-81.0960,6.0,6.15,63.83,7.15,'1111122,1111122,1111122' 
COMPS,ioos:station:USF.COMPS:NFB:1,2015-02-01T03:30:00Z,25.0840,-81.0960,6.0,6.27,64.75,7.35,'1111122,1111122,1111122' 
COMPS,ioos:station:USF.COMPS:NFB:1,2015-02-01T03:36:00Z,25.0840,-81.0960,6.0,5.81,64.93,6.66,'1111122,1111122,1111122' 
COMPS,ioos:station:USF.COMPS:NFB:1,2015-02-01T03:42:00Z,25.0840,-81.0960,6.0,5.86,66.71,6.76,'1111122,1111122,1111122' 
COMPS,ioos:station:USF.COMPS:NFB:1,2015-02-01T03:48:00Z,25.0840,-81.0960,6.0,5.79,68.03,6.46,'1111122,1111122,1111122' 
COMPS,ioos:station:USF.COMPS:NFB:1,2015-02-01T03:54:00Z,25.0840,-81.0960,6.0,5.62,69.13,6.46,'1111122,1111122,1111122' 
COMPS,ioos:station:USF.COMPS:NFB:1,2015-02-01T04:00:00Z,25.0840,-81.0960,6.0,5.65,69.35,6.46,'1111122,1111122,1111122' 
COMPS,ioos:station:USF.COMPS:NFB:1,2015-02-01T04:06:00Z,25.0840,-81.0960,6.0,5.02,67.84,5.78,'1111122,1111122,1111122' 
COMPS,ioos:station:USF.COMPS:NFB:1,2015-02-01T04:12:00Z,25.0840,-81.0960,6.0,5.12,71.5,5.78,'1111122,1111122,1111122' 
COMPS,ioos:station:USF.COMPS:NFB:1,2015-02-01T04:18:00Z,25.0840,-81.0960,6.0,5.08,77.64,5.68,'1111122,1111122,1111122' 
COMPS,ioos:station:USF.COMPS:NFB:1,2015-02-01T04:24:00Z,25.0840,-81.0960,6.0,5.2,77.98,5.78,'1111122,1111122,1111122' 
COMPS,ioos:station:USF.COMPS:NFB:1,2015-02-01T04:30:00Z,25.0840,-81.0960,6.0,5.33,77.08,6.27,'1111122,1111122,1111122' 
COMPS,ioos:station:USF.COMPS:NFB:1,2015-02-01T04:36:00Z,25.0840,-81.0960,6.0,5.86,78.25,6.95,'1111122,1111122,1111122' 
COMPS,ioos:station:USF.COMPS:NFB:1,2015-02-01T04:42:00Z,25.0840,-81.0960,6.0,5.77,77.74,6.66,'1111122,1111122,1111122' 
COMPS,ioos:station:USF.COMPS:NFB:1,2015-02-01T04:48:00Z,25.0840,-81.0960,6.0,5.58,75.52,6.37,'1111122,1111122,1111122' 
COMPS,ioos:station:USF.COMPS:NFB:1,2015-02-01T04:54:00Z,25.0840,-81.0960,6.0,5.55,77.99,6.17,'1111122,1111122,1111122' 
COMPS,ioos:station:USF.COMPS:NFB:1,2015-02-01T05:00:00Z,25.0840,-81.0960,6.0,5.45,77.85,6.27,'1111122,1111122,1111122' 
COMPS,ioos:station:USF.COMPS:NFB:1,2015-02-01T05:06:00Z,25.0840,-81.0960,6.0,5.08,81.27,6.27,'1111122,1111122,1111122' 
COMPS,ioos:station:USF.COMPS:NFB:1,2015-02-01T05:12:00Z,25.0840,-81.0960,6.0,5.34,79.7,6.17,'1111122,1111122,1111122' 
COMPS,ioos:station:USF.COMPS:NFB:1,2015-02-01T05:18:00Z,25.0840,-81.0960,6.0,5.32,76.84,6.17,'1111122,1111122,1111122' 
COMPS,ioos:station:USF.COMPS:NFB:1,2015-02-01T05:24:00Z,25.0840,-81.0960,6.0,5.43,79.99,5.97,'1111122,1111122,1111122' 
COMPS,ioos:station:USF.COMPS:NFB:1,2015-02-01T05:30:00Z,25.0840,-81.0960,6.0,5.65,80.18,6.56,'1111122,1111122,1111122' 
COMPS,ioos:station:USF.COMPS:NFB:1,2015-02-01T05:36:00Z,25.0840,-81.0960,6.0,5.59,81.43,6.46,'1111122,1111122,1111122' 
COMPS,ioos:station:USF.COMPS:NFB:1,2015-02-01T05:42:00Z,25.0840,-81.0960,6.0,5.72,83.59,6.76,'1111122,1111122,1111122' 
COMPS,ioos:station:USF.COMPS:NFB:1,2015-02-01T05:48:00Z,25.0840,-81.0960,6.0,5.56,82.64,6.17,'1111122,1111122,1111122' 
COMPS,ioos:station:USF.COMPS:NFB:1,2015-02-01T05:54:00Z,25.0840,-81.0960,6.0,5.74,83.97,6.56,'1111122,1111122,1111122' 
COMPS,ioos:station:USF.COMPS:NFB:1,2015-02-01T06:00:00Z,25.0840,-81.0960,6.0,5.74,83.26,6.76,'1111122,1111122,1111122' 
COMPS,ioos:station:USF.COMPS:NFB:1,2015-02-01T06:06:00Z,25.0840,-81.0960,6.0,5.95,85.01,6.66,'1111122,1111122,1111122' 
COMPS,ioos:station:USF.COMPS:NFB:1,2015-02-01T06:12:00Z,25.0840,-81.0960,6.0,5.87,81.35,6.56,'1111122,1111122,1111122' 
COMPS,ioos:station:USF.COMPS:NFB:1,2015-02-01T06:18:00Z,25.0840,-81.0960,6.0,5.4,82.13,6.27,'1111122,1111122,1111122' 
COMPS,ioos:station:USF.COMPS:NFB:1,2015-02-01T06:24:00Z,25.0840,-81.0960,6.0,5.98,81.15,6.46,'1111122,1111122,1111122' 
COMPS,ioos:station:USF.COMPS:NFB:1,2015-02-01T06:30:00Z,25.0840,-81.0960,6.0,6.17,83.84,7.15,'1111122,1111122,1111122' 
COMPS,ioos:station:USF.COMPS:NFB:1,2015-02-01T06:36:00Z,25.0840,-81.0960,6.0,5.82,83.86,6.56,'1111122,1111122,1111122' 
COMPS,ioos:station:USF.COMPS:NFB:1,2015-02-01T06:42:00Z,25.0840,-81.0960,6.0,5.91,92.71,7.64,'1111122,1111122,1111122' 
COMPS,ioos:station:USF.COMPS:NFB:1,2015-02-01T06:48:00Z,25.0840,-81.0960,6.0,6.75,98.59,7.64,'1111122,1111122,1111122' 
COMPS,ioos:station:USF.COMPS:NFB:1,2015-02-01T06:54:00Z,25.0840,-81.0960,6.0,6.54,101.08,7.54,'1111122,1111122,1111122' 
COMPS,ioos:station:USF.COMPS:NFB:1,2015-02-01T07:00:00Z,25.0840,-81.0960,6.0,6.13,102.3,7.25,'1111122,1111122,1111122' 
COMPS,ioos:station:USF.COMPS:NFB:1,2015-02-01T07:06:00Z,25.0840,-81.0960,6.0,5.78,96.21,6.76,'1111122,1111122,1111122' 
COMPS,ioos:station:USF.COMPS:NFB:1,2015-02-01T07:12:00Z,25.0840,-81.0960,6.0,5.49,84.67,6.17,'1111122,1111122,1111122' 
COMPS,ioos:station:USF.COMPS:NFB:1,2015-02-01T07:18:00Z,25.0840,-81.0960,6.0,5.9,87.09,6.95,'1111122,1111122,1111122' 
COMPS,ioos:station:USF.COMPS:NFB:1,2015-02-01T07:24:00Z,25.0840,-81.0960,6.0,5.79,87.57,6.56,'1111122,1111122,1111122' 
COMPS,ioos:station:USF.COMPS:NFB:1,2015-02-01T07:30:00Z,25.0840,-81.0960,6.0,5.98,82.94,6.76,'1111122,1111122,1111122' 
COMPS,ioos:station:USF.COMPS:NFB:1,2015-02-01T07:36:00Z,25.0840,-81.0960,6.0,5.83,78.69,7.25,'1111122,1111122,1111122' 
COMPS,ioos:station:USF.COMPS:NFB:1,2015-02-01T07:42:00Z,25.0840,-81.0960,6.0,5.9,81.64,6.76,'1111122,1111122,1111122' 
COMPS,ioos:station:USF.COMPS:NFB:1,2015-02-01T07:48:00Z,25.0840,-81.0960,6.0,5.93,77.09,6.56,'1111122,1111122,1111122' 
COMPS,ioos:station:USF.COMPS:NFB:1,2015-02-01T07:54:00Z,25.0840,-81.0960,6.0,6.08,82.62,6.95,'1111122,1111122,1111122' 
COMPS,ioos:station:USF.COMPS:NFB:1,2015-02-01T08:00:00Z,25.0840,-81.0960,6.0,5.8,83.93,6.46,'1111122,1111122,1111122' 
COMPS,ioos:station:USF.COMPS:NFB:1,2015-02-01T08:06:00Z,25.0840,-81.0960,6.0,5.55,83.66,6.37,'1111122,1111122,1111122' 
COMPS,ioos:station:USF.COMPS:NFB:1,2015-02-01T08:12:00Z,25.0840,-81.0960,6.0,5.55,82.85,6.46,'1111122,1111122,1111122' 
COMPS,ioos:station:USF.COMPS:NFB:1,2015-02-01T08:18:00Z,25.0840,-81.0960,6.0,5.89,87.65,7.44,'1111122,1111122,1111122' 
COMPS,ioos:station:USF.COMPS:NFB:1,2015-02-01T08:24:00Z,25.0840,-81.0960,6.0,6.51,93.33,7.44,'1111122,1111122,1111122' 
COMPS,ioos:station:USF.COMPS:NFB:1,2015-02-01T08:30:00Z,25.0840,-81.0960,6.0,6.64,95.58,7.83,'1111122,1111122,1111122' 
COMPS,ioos:station:USF.COMPS:NFB:1,2015-02-01T08:36:00Z,25.0840,-81.0960,6.0,6.63,95.01,7.44,'1111122,1111122,1111122' 
COMPS,ioos:station:USF.COMPS:NFB:1,2015-02-01T08:42:00Z,25.0840,-81.0960,6.0,6.44,91.82,7.15,'1111122,1111122,1111122' 
COMPS,ioos:station:USF.COMPS:NFB:1,2015-02-01T08:48:00Z,25.0840,-81.0960,6.0,6.35,91.61,7.44,'1111122,1111122,1111122' 
COMPS,ioos:station:USF.COMPS:NFB:1,2015-02-01T08:54:00Z,25.0840,-81.0960,6.0,6.45,91.87,7.35,'1111122,1111122,1111122' 
COMPS,ioos:station:USF.COMPS:NFB:1,2015-02-01T09:00:00Z,25.0840,-81.0960,6.0,5.8,77.51,6.85,'1111122,1111122,1111122' 
COMPS,ioos:station:USF.COMPS:NFB:1,2015-02-01T09:06:00Z,25.0840,-81.0960,6.0,5.33,76.01,6.17,'1111122,1111122,1111122' 
COMPS,ioos:station:USF.COMPS:NFB:1,2015-02-01T09:12:00Z,25.0840,-81.0960,6.0,5.0,74.65,5.58,'1111122,1111122,1111122' 
COMPS,ioos:station:USF.COMPS:NFB:1,2015-02-01T09:18:00Z,25.0840,-81.0960,6.0,5.3,74.84,5.87,'1111122,1111122,1111122' 
COMPS,ioos:station:USF.COMPS:NFB:1,2015-02-01T09:24:00Z,25.0840,-81.0960,6.0,5.4,73.14,6.56,'1111122,1111122,1111122' 
COMPS,ioos:station:USF.COMPS:NFB:1,2015-02-01T09:30:00Z,25.0840,-81.0960,6.0,5.78,75.15,6.56,'1111122,1111122,1111122' 
COMPS,ioos:station:USF.COMPS:NFB:1,2015-02-01T09:36:00Z,25.0840,-81.0960,6.0,5.67,73.79,6.66,'1111122,1111122,1111122' 
COMPS,ioos:station:USF.COMPS:NFB:1,2015-02-01T09:42:00Z,25.0840,-81.0960,6.0,5.7,73.18,6.85,'1111122,1111122,1111122' 
COMPS,ioos:station:USF.COMPS:NFB:1,2015-02-01T09:48:00Z,25.0840,-81.0960,6.0,5.92,73.69,6.66,'1111122,1111122,1111122' 
COMPS,ioos:station:USF.COMPS:NFB:1,2015-02-01T09:54:00Z,25.0840,-81.0960,6.0,6.0,73.09,6.95,'1111122,1111122,1111122' 
COMPS,ioos:station:USF.COMPS:NFB:1,2015-02-01T10:00:00Z,25.0840,-81.0960,6.0,5.91,72.38,6.85,'1111122,1111122,1111122' 
COMPS,ioos:station:USF.COMPS:NFB:1,2015-02-01T10:06:00Z,25.0840,-81.0960,6.0,6.1,72.89,7.05,'1111122,1111122,1111122' 
COMPS,ioos:station:USF.COMPS:NFB:1,2015-02-01T10:12:00Z,25.0840,-81.0960,6.0,6.18,70.87,7.05,'1111122,1111122,1111122' 
COMPS,ioos:station:USF.COMPS:NFB:1,2015-02-01T10:18:00Z,25.0840,-81.0960,6.0,6.07,67.65,7.15,'1111122,1111122,1111122' 
COMPS,ioos:station:USF.COMPS:NFB:1,2015-02-01T10:24:00Z,25.0840,-81.0960,6.0,6.12,64.25,7.05,'1111122,1111122,1111122' 
COMPS,ioos:station:USF.COMPS:NFB:1,2015-02-01T10:30:00Z,25.0840,-81.0960,6.0,5.9,63.39,6.66,'1111122,1111122,1111122' 
COMPS,ioos:station:USF.COMPS:NFB:1,2015-02-01T10:36:00Z,25.0840,-81.0960,6.0,5.75,62.68,6.37,'1111122,1111122,1111122' 
COMPS,ioos:station:USF.COMPS:NFB:1,2015-02-01T10:42:00Z,25.0840,-81.0960,6.0,5.54,65.09,6.07,'1111122,1111122,1111122' 
COMPS,ioos:station:USF.COMPS:NFB:1,2015-02-01T10:48:00Z,25.0840,-81.0960,6.0,5.47,65.3,6.07,'1111122,1111122,1111122' 
COMPS,ioos:station:USF.COMPS:NFB:1,2015-02-01T10:54:00Z,25.0840,-81.0960,6.0,5.45,65.12,6.46,'1111122,1111122,1111122' 
COMPS,ioos:station:USF.COMPS:NFB:1,2015-02-01T11:00:00Z,25.0840,-81.0960,6.0,5.52,62.7,6.37,'1111122,1111122,1111122' 
COMPS,ioos:station:USF.COMPS:NFB:1,2015-02-01T11:06:00Z,25.0840,-81.0960,6.0,5.68,61.88,6.37,'1111122,1111122,1111122' 
COMPS,ioos:station:USF.COMPS:NFB:1,2015-02-01T11:12:00Z,25.0840,-81.0960,6.0,5.57,63.84,6.07,'1111122,1111122,1111122' 
COMPS,ioos:station:USF.COMPS:NFB:1,2015-02-01T11:18:00Z,25.0840,-81.0960,6.0,5.06,68.44,5.68,'1111122,1111122,1111122' 
COMPS,ioos:station:USF.COMPS:NFB:1,2015-02-01T11:24:00Z,25.0840,-81.0960,6.0,5.43,73.15,6.85,'1111122,1111122,1111122' 
COMPS,ioos:station:USF.COMPS:NFB:1,2015-02-01T11:30:00Z,25.0840,-81.0960,6.0,5.9,71.62,6.66,'1111122,1111122,1111122' 
COMPS,ioos:station:USF.COMPS:NFB:1,2015-02-01T11:36:00Z,25.0840,-81.0960,6.0,5.34,75.72,6.07,'1111122,1111122,1111122' 
COMPS,ioos:station:USF.COMPS:NFB:1,2015-02-01T11:42:00Z,25.0840,-81.0960,6.0,5.6,77.96,6.27,'1111122,1111122,1111122' 
COMPS,ioos:station:USF.COMPS:NFB:1,2015-02-01T11:48:00Z,25.0840,-81.0960,6.0,5.44,80.95,6.17,'1111122,1111122,1111122' 
COMPS,ioos:station:USF.COMPS:NFB:1,2015-02-01T11:54:00Z,25.0840,-81.0960,6.0,5.58,79.33,6.46,'1111122,1111122,1111122' 
COMPS,ioos:station:USF.COMPS:NFB:1,2015-02-01T13:00:00Z,25.0840,-81.0960,6.0,4.29,81.68,4.7,'1111122,1111122,1111122' 
COMPS,ioos:station:USF.COMPS:NFB:1,2015-02-01T13:06:00Z,25.0840,-81.0960,6.0,4.5,79.24,5.09,'1111122,1111122,1111122' 
COMPS,ioos:station:USF.COMPS:NFB:1,2015-02-01T13:12:00Z,25.0840,-81.0960,6.0,4.56,81.77,5.19,'1111122,1111122,1111122' 
COMPS,ioos:station:USF.COMPS:NFB:1,2015-02-01T13:18:00Z,25.0840,-81.0960,6.0,4.8,85.25,5.29,'1111122,1111122,1111122' 
COMPS,ioos:station:USF.COMPS:NFB:1,2015-02-01T13:24:00Z,25.0840,-81.0960,6.0,4.78,85.79,5.68,'1111122,1111122,1111122' 
COMPS,ioos:station:USF.COMPS:NFB:1,2015-02-01T13:30:00Z,25.0840,-81.0960,6.0,4.95,84.48,5.58,'1111122,1111122,1111122' 
COMPS,ioos:station:USF.COMPS:NFB:1,2015-02-01T13:36:00Z,25.0840,-81.0960,6.0,4.78,88.08,5.48,'1111122,1111122,1111122' 
COMPS,ioos:station:USF.COMPS:NFB:1,2015-02-01T13:42:00Z,25.0840,-81.0960,6.0,5.03,88.15,5.58,'1111122,1111122,1111122' 
COMPS,ioos:station:USF.COMPS:NFB:1,2015-02-01T13:48:00Z,25.0840,-81.0960,6.0,5.34,92.06,5.97,'1111122,1111122,1111122' 
COMPS,ioos:station:USF.COMPS:NFB:1,2015-02-01T13:54:00Z,25.0840,-81.0960,6.0,5.61,92.36,6.66,'1111122,1111122,1111122' 
COMPS,ioos:station:USF.COMPS:NFB:1,2015-02-01T14:00:00Z,25.0840,-81.0960,6.0,5.54,92.04,6.27,'1111122,1111122,1111122' 
COMPS,ioos:station:USF.COMPS:NFB:1,2015-02-01T14:06:00Z,25.0840,-81.0960,6.0,5.49,89.0,6.27,'1111122,1111122,1111122' 
COMPS,ioos:station:USF.COMPS:NFB:1,2015-02-01T14:12:00Z,25.0840,-81.0960,6.0,5.89,90.39,6.56,'1111122,1111122,1111122' 
COMPS,ioos:station:USF.COMPS:NFB:1,2015-02-01T14:18:00Z,25.0840,-81.0960,6.0,5.89,86.38,6.66,'1111122,1111122,1111122' 
COMPS,ioos:station:USF.COMPS:NFB:1,2015-02-01T14:24:00Z,25.0840,-81.0960,6.0,5.31,84.77,6.17,'1111122,1111122,1111122' 
COMPS,ioos:station:USF.COMPS:NFB:1,2015-02-01T14:30:00Z,25.0840,-81.0960,6.0,4.65,82.28,5.48,'1111122,1111122,1111122' 
COMPS,ioos:station:USF.COMPS:NFB:1,2015-02-01T14:36:00Z,25.0840,-81.0960,6.0,4.27,81.33,4.9,'1111122,1111122,1111122' 
COMPS,ioos:station:USF.COMPS:NFB:1,2015-02-01T14:42:00Z,25.0840,-81.0960,6.0,4.36,81.21,4.9,'1111122,1111122,1111122' 
COMPS,ioos:station:USF.COMPS:NFB:1,2015-02-01T14:48:00Z,25.0840,-81.0960,6.0,4.58,79.33,5.29,'1111122,1111122,1111122' 
COMPS,ioos:station:USF.COMPS:NFB:1,2015-02-01T14:54:00Z,25.0840,-81.0960,6.0,4.59,75.96,5.29,'1111122,1111122,1111122' 
COMPS,ioos:station:USF.COMPS:NFB:1,2015-02-01T15:00:00Z,25.0840,-81.0960,6.0,4.63,78.32,5.29,'1111122,1111122,1111122' 
COMPS,ioos:station:USF.COMPS:NFB:1,2015-02-01T15:06:00Z,25.0840,-81.0960,6.0,4.67,77.83,5.29,'1111122,1111122,1111122' 
COMPS,ioos:station:USF.COMPS:NFB:1,2015-02-01T15:12:00Z,25.0840,-81.0960,6.0,4.63,82.64,5.29,'1111122,1111122,1111122' 
COMPS,ioos:station:USF.COMPS:NFB:1,2015-02-01T15:18:00Z,25.0840,-81.0960,6.0,4.8,88.11,5.68,'1111122,1111122,1111122' 
COMPS,ioos:station:USF.COMPS:NFB:1,2015-02-01T15:24:00Z,25.0840,-81.0960,6.0,4.62,84.21,5.19,'1111122,1111122,1111122' 
COMPS,ioos:station:USF.COMPS:NFB:1,2015-02-01T15:30:00Z,25.0840,-81.0960,6.0,4.49,88.01,5.29,'1111122,1111122,1111122' 
COMPS,ioos:station:USF.COMPS:NFB:1,2015-02-01T15:36:00Z,25.0840,-81.0960,6.0,4.24,86.57,4.99,'1111122,1111122,1111122' 
COMPS,ioos:station:USF.COMPS:NFB:1,2015-02-01T15:42:00Z,25.0840,-81.0960,6.0,4.53,88.46,5.19,'1111122,1111122,1111122' 
COMPS,ioos:station:USF.COMPS:NFB:1,2015-02-01T15:48:00Z,25.0840,-81.0960,6.0,5.05,91.89,5.87,'1111122,1111122,1111122' 
COMPS,ioos:station:USF.COMPS:NFB:1,2015-02-01T15:54:00Z,25.0840,-81.0960,6.0,5.08,92.95,5.87,'1111122,1111122,1111122' 
COMPS,ioos:station:USF.COMPS:NFB:1,2015-02-01T16:00:00Z,25.0840,-81.0960,6.0,5.16,93.76,5.78,'1111122,1111122,1111122' 
COMPS,ioos:station:USF.COMPS:NFB:1,2015-02-01T16:06:00Z,25.0840,-81.0960,6.0,5.25,95.03,6.27,'1111122,1111122,1111122' 
COMPS,ioos:station:USF.COMPS:NFB:1,2015-02-01T16:12:00Z,25.0840,-81.0960,6.0,5.43,94.74,6.66,'1111122,1111122,1111122' 
COMPS,ioos:station:USF.COMPS:NFB:1,2015-02-01T16:18:00Z,25.0840,-81.0960,6.0,5.51,94.21,6.27,'1111122,1111122,1111122' 
COMPS,ioos:station:USF.COMPS:NFB:1,2015-02-01T16:24:00Z,25.0840,-81.0960,6.0,5.51,94.8,6.76,'1111122,1111122,1111122' 
COMPS,ioos:station:USF.COMPS:NFB:1,2015-02-01T16:30:00Z,25.0840,-81.0960,6.0,5.14,86.25,5.68,'1111122,1111122,1111122' 
COMPS,ioos:station:USF.COMPS:NFB:1,2015-02-01T16:36:00Z,25.0840,-81.0960,6.0,4.99,86.77,5.58,'1111122,1111122,1111122' 
COMPS,ioos:station:USF.COMPS:NFB:1,2015-02-01T16:42:00Z,25.0840,-81.0960,6.0,4.93,85.27,5.68,'1111122,1111122,1111122' 
COMPS,ioos:station:USF.COMPS:NFB:1,2015-02-01T16:48:00Z,25.0840,-81.0960,6.0,5.07,84.45,6.17,'1111122,1111122,1111122' 
COMPS,ioos:station:USF.COMPS:NFB:1,2015-02-01T16:54:00Z,25.0840,-81.0960,6.0,5.12,86.18,5.68,'1111122,1111122,1111122' 
COMPS,ioos:station:USF.COMPS:NFB:1,2015-02-01T17:00:00Z,25.0840,-81.0960,6.0,5.1,88.36,5.68,'1111122,1111122,1111122' 
COMPS,ioos:station:USF.COMPS:NFB:1,2015-02-01T17:06:00Z,25.0840,-81.0960,6.0,5.15,87.9,6.07,'1111122,1111122,1111122' 
COMPS,ioos:station:USF.COMPS:NFB:1,2015-02-01T17:12:00Z,25.0840,-81.0960,6.0,5.13,88.0,5.78,'1111122,1111122,1111122' 
COMPS,ioos:station:USF.COMPS:NFB:1,2015-02-01T17:18:00Z,25.0840,-81.0960,6.0,4.8,86.7,5.78,'1111122,1111122,1111122' 
COMPS,ioos:station:USF.COMPS:NFB:1,2015-02-01T17:24:00Z,25.0840,-81.0960,6.0,4.66,87.32,5.58,'1111122,1111122,1111122' 
COMPS,ioos:station:USF.COMPS:NFB:1,2015-02-01T17:30:00Z,25.0840,-81.0960,6.0,4.23,87.76,4.8,'1111122,1111122,1111122' 
COMPS,ioos:station:USF.COMPS:NFB:1,2015-02-01T17:36:00Z,25.0840,-81.0960,6.0,4.33,85.29,5.29,'1111122,1111122,1111122' 
COMPS,ioos:station:USF.COMPS:NFB:1,2015-02-01T17:42:00Z,25.0840,-81.0960,6.0,4.34,91.45,5.09,'1111122,1111122,1111122' 
COMPS,ioos:station:USF.COMPS:NFB:1,2015-02-01T17:48:00Z,25.0840,-81.0960,6.0,4.2,88.72,4.8,'1111122,1111122,1111122' 
COMPS,ioos:station:USF.COMPS:NFB:1,2015-02-01T17:54:00Z,25.0840,-81.0960,6.0,4.27,103.22,4.7,'1111122,1111122,1111122' 
COMPS,ioos:station:USF.COMPS:NFB:1,2015-02-01T18:00:00Z,25.0840,-81.0960,6.0,4.33,107.21,5.19,'1111122,1111122,1111122' 
COMPS,ioos:station:USF.COMPS:NFB:1,2015-02-01T18:06:00Z,25.0840,-81.0960,6.0,4.82,107.91,5.97,'1111122,1111122,1111122' 
COMPS,ioos:station:USF.COMPS:NFB:1,2015-02-01T18:12:00Z,25.0840,-81.0960,6.0,4.79,107.11,5.29,'1111122,1111122,1111122' 
COMPS,ioos:station:USF.COMPS:NFB:1,2015-02-01T18:18:00Z,25.0840,-81.0960,6.0,4.59,99.96,5.68,'1111122,1111122,1111122' 
COMPS,ioos:station:USF.COMPS:NFB:1,2015-02-01T18:24:00Z,25.0840,-81.0960,6.0,4.64,100.7,5.39,'1111122,1111122,1111122' 
COMPS,ioos:station:USF.COMPS:NFB:1,2015-02-01T18:30:00Z,25.0840,-81.0960,6.0,5.26,107.67,5.97,'1111122,1111122,1111122' 
COMPS,ioos:station:USF.COMPS:NFB:1,2015-02-01T18:36:00Z,25.0840,-81.0960,6.0,5.2,104.18,6.27,'1111122,1111122,1111122' 
COMPS,ioos:station:USF.COMPS:NFB:1,2015-02-01T18:42:00Z,25.0840,-81.0960,6.0,5.15,100.72,5.97,'1111122,1111122,1111122' 
COMPS,ioos:station:USF.COMPS:NFB:1,2015-02-01T18:48:00Z,25.0840,-81.0960,6.0,5.28,98.58,6.17,'1111122,1111122,1111122' 
COMPS,ioos:station:USF.COMPS:NFB:1,2015-02-01T18:54:00Z,25.0840,-81.0960,6.0,5.52,105.64,6.27,'1111122,1111122,1111122' 
COMPS,ioos:station:USF.COMPS:NFB:1,2015-02-01T19:00:00Z,25.0840,-81.0960,6.0,5.53,110.87,6.66,'1111122,1111122,1111122' 
COMPS,ioos:station:USF.COMPS:NFB:1,2015-02-01T19:06:00Z,25.0840,-81.0960,6.0,5.87,114.47,6.46,'1111122,1111122,1111122' 
COMPS,ioos:station:USF.COMPS:NFB:1,2015-02-01T19:12:00Z,25.0840,-81.0960,6.0,5.7,112.39,6.46,'1111122,1111122,1111122' 
COMPS,ioos:station:USF.COMPS:NFB:1,2015-02-01T19:18:00Z,25.0840,-81.0960,6.0,5.43,114.23,6.76,'1111122,1111122,1111122' 
COMPS,ioos:station:USF.COMPS:NFB:1,2015-02-01T19:24:00Z,25.0840,-81.0960,6.0,5.57,112.43,6.27,'1111122,1111122,1111122' 
COMPS,ioos:station:USF.COMPS:NFB:1,2015-02-01T19:30:00Z,25.0840,-81.0960,6.0,5.53,114.49,6.56,'1111122,1111122,1111122' 
COMPS,ioos:station:USF.COMPS:NFB:1,2015-02-01T19:36:00Z,25.0840,-81.0960,6.0,6.03,121.59,6.85,'1111122,1111122,1111122' 
COMPS,ioos:station:USF.COMPS:NFB:1,2015-02-01T19:42:00Z,25.0840,-81.0960,6.0,6.26,121.51,7.25,'1111122,1111122,1111122' 
COMPS,ioos:station:USF.COMPS:NFB:1,2015-02-01T19:48:00Z,25.0840,-81.0960,6.0,6.68,119.98,8.13,'1111122,1111122,1111122' 
COMPS,ioos:station:USF.COMPS:NFB:1,2015-02-01T19:54:00Z,25.0840,-81.0960,6.0,6.54,119.16,7.35,'1111122,1111122,1111122' 
COMPS,ioos:station:USF.COMPS:NFB:1,2015-02-01T20:00:00Z,25.0840,-81.0960,6.0,6.18,118.35,7.05,'1111122,1111122,1111122' 
COMPS,ioos:station:USF.COMPS:NFB:1,2015-02-01T20:06:00Z,25.0840,-81.0960,6.0,6.16,116.59,7.25,'1111122,1111122,1111122' 
COMPS,ioos:station:USF.COMPS:NFB:1,2015-02-01T20:12:00Z,25.0840,-81.0960,6.0,5.93,114.04,6.85,'1111122,1111122,1111122' 
COMPS,ioos:station:USF.COMPS:NFB:1,2015-02-01T20:18:00Z,25.0840,-81.0960,6.0,6.24,117.26,7.35,'1111122,1111122,1111122' 
COMPS,ioos:station:USF.COMPS:NFB:1,2015-02-01T20:24:00Z,25.0840,-81.0960,6.0,6.31,124.15,7.05,'1111122,1111122,1111122' 
COMPS,ioos:station:USF.COMPS:NFB:1,2015-02-01T20:30:00Z,25.0840,-81.0960,6.0,6.31,119.39,7.15,'1111122,1111122,1111122' 
COMPS,ioos:station:USF.COMPS:NFB:1,2015-02-01T20:36:00Z,25.0840,-81.0960,6.0,6.02,117.72,7.35,'1111122,1111122,1111122' 
COMPS,ioos:station:USF.COMPS:NFB:1,2015-02-01T20:42:00Z,25.0840,-81.0960,6.0,5.18,119.25,7.25,'1111122,1111122,1111122' 
COMPS,ioos:station:USF.COMPS:NFB:1,2015-02-01T20:48:00Z,25.0840,-81.0960,6.0,4.77,118.2,6.17,'1111122,1111122,1111122' 
COMPS,ioos:station:USF.COMPS:NFB:1,2015-02-01T20:54:00Z,25.0840,-81.0960,6.0,5.67,124.17,6.85,'1111122,1111122,1111122' 
COMPS,ioos:station:USF.COMPS:NFB:1,2015-02-01T21:00:00Z,25.0840,-81.0960,6.0,5.67,128.55,6.76,'1111122,1111122,1111122' 
COMPS,ioos:station:USF.COMPS:NFB:1,2015-02-01T21:06:00Z,25.0840,-81.0960,6.0,5.74,127.78,7.15,'1111122,1111122,1111122' 
COMPS,ioos:station:USF.COMPS:NFB:1,2015-02-01T21:12:00Z,25.0840,-81.0960,6.0,5.55,126.71,6.95,'1111122,1111122,1111122' 
COMPS,ioos:station:USF.COMPS:NFB:1,2015-02-01T21:18:00Z,25.0840,-81.0960,6.0,5.52,126.99,6.37,'1111122,1111122,1111122' 
COMPS,ioos:station:USF.COMPS:NFB:1,2015-02-01T21:24:00Z,25.0840,-81.0960,6.0,6.17,129.72,7.64,'1111122,1111122,1111122' 
COMPS,ioos:station:USF.COMPS:NFB:1,2015-02-01T21:30:00Z,25.0840,-81.0960,6.0,6.31,131.33,7.05,'1111122,1111122,1111122' 
COMPS,ioos:station:USF.COMPS:NFB:1,2015-02-01T21:36:00Z,25.0840,-81.0960,6.0,6.42,132.42,7.54,'1111122,1111122,1111122' 
COMPS,ioos:station:USF.COMPS:NFB:1,2015-02-01T21:42:00Z,25.0840,-81.0960,6.0,6.27,133.31,7.05,'1111122,1111122,1111122' 
COMPS,ioos:station:USF.COMPS:NFB:1,2015-02-01T21:48:00Z,25.0840,-81.0960,6.0,6.03,131.86,7.05,'1111122,1111122,1111122' 